Regional Weather Roundup
Issued by NWS Cleveland, OH

Home | Current Version | Previous Version | Text Only | Print | Product List | Glossary Off
Versions: 1 2 3 4 5 6 7 8 9 10 11 12 13 14 15 16 17 18 19 20 21 22 23 24 25 26 27 28 29 30 31 32 33 34 35 36 37 38 39 40 41 42 43 44 45 46 47 48 49 50

000
ASUS41 KCLE 240710
RWRCLE
OHIO REGIONAL WEATHER ROUNDUP
NATIONAL WEATHER SERVICE WILMINGTON, OH
300 AM EDT MON APR 24 2017

NOTE: "FAIR" INDICATES FEW OR NO CLOUDS BELOW 12,000 FEET WITH NO
SIGNIFICANT WEATHER AND/OR OBSTRUCTIONS TO VISIBILITY.

OHZ001>008-015>018-024>027-034-035-043-044-240800-
   NORTHWEST OHIO

CITY           SKY/WX    TMP DP  RH WIND       PRES   REMARKS
DEFIANCE       FAIR      40  34  79 NE3       30.03F
FINDLAY        FAIR      46  31  55 E6        30.01F
TOLEDO EXPRESS FAIR      41  33  73 CALM      30.03F
TOLEDO EXEC    FAIR      44  36  73 NE3       30.04F
LIMA           FAIR      43  33  68 E7        30.00F
$$

OHZ009>014-019>023-028>033-038-089-240800-
   NORTHEAST OHIO

CITY           SKY/WX    TMP DP  RH WIND       PRES   REMARKS
CLE-HOPKINS    FAIR      44  35  70 CALM      30.06F
CLE-LAKEFRONT  FAIR      49  32  52 CALM      30.04S
CUY CO. ARPT   NOT AVBL
LORAIN-ELYRIA  FAIR      40  31  70 NE3       30.04F
ASHTABULA      FAIR      39  36  89 CALM      30.07S
AKRON-CANTON   FAIR      46  31  55 NE9       30.02F
WOOSTER        FAIR      45  32  60 NE7       30.02F
MANSFIELD      FAIR      46  30  53 NE8       30.02F
YOUNGSTOWN     FAIR      42  32  67 NE8       30.05F
$$

OHZ042-051>053-060>062-070>072-077>081-240800-
  SOUTHWEST OHIO

CITY           SKY/WX    TMP DP  RH WIND       PRES   REMARKS
CINC-COVINGTON MOCLDY    56  36  47 NE9       29.94F
CINC-LUNKEN    FAIR      43  42  97 S5        29.95F
HAMILTON       FAIR      44  38  79 CALM      29.95F
DAYTON         FAIR      45  35  68 NE8       29.97F
WRIGHT-PAT AFB FAIR      45  38  77 N10       29.96F
DAYTON GENERAL FAIR      49  38  65 NE7       29.95F
WILMINGTON     FAIR      45  39  79 NE10      29.94F
$$

OHZ036-037-039>041-045>050-054>059-063>069-073>076-082>088-240800-
  CENTRAL AND SOUTHEAST OHIO

CITY           SKY/WX    TMP DP  RH WIND       PRES   REMARKS
COLUMBUS       FAIR      50  38  63 NE8       29.97F
OSU AIRPORT    FAIR      47  38  71 NE7       29.98F
BOLTON FIELD   FAIR      47  38  73 NE6       29.98F
RICKENBACK AFB FAIR      46  37  71 NE9       29.97F
NEWARK         FAIR      50  37  61 N3        29.98F
MARION         FAIR      44  33  65 NE8       30.01F
LANCASTER      FAIR      48  38  68 N7        29.98F
ZANESVILLE     FAIR      50  33  52 N3        29.99S
NEW PHILLY     FAIR      46  40  79 CALM      30.01F
$$



USA.gov is the U.S. government's official web portal to all federal, state and local government web resources and services.